Location: *
(39.6167°S, 171.5333°W)
Time: 23:16:31
(UTC+00:00)

Aureole 3 - Pass Details

Date: 13 May 2021
Orbit: 380 x 1230 km, 82.5° (Epoch: 15 June)

Event Time Altitude Azimuth Distance (km) Brightness Sun altitude
Rises 17:19:44 0° 343° (NNW) 2,319 6.5 -12.2°
Reaches altitude 10° 17:21:37 10° 338° (NNW) 1,519 5.5 -11.9°
Maximum altitude 17:24:48 54° 259° (W) 589 3.1 -11.3°
Drops below altitude 10° 17:28:40 10° 181° (S) 1,842 5.8 -10.6°
Sets 17:31:09 0° 176° (S) 2,884 6.9 -10.1°
